Weather History for Edinburg, TX

Change the Weather History Date:

Saturday, January 12, 2013

  Actual Average (KMFE) Record (KMFE)
Temperature  
Mean Temperature 78 °F 60 °F  
Max Temperature 85 °F 71 °F 88 °F (1960)
Min Temperature 70 °F 50 °F 17 °F (1899)
Degree Days  
Heating Degree Days 0 6  
Month to date heating degree days 83  
Since 1 July heating degree days 320  
Cooling Degree Days 12 2  
Month to date cooling degree days 24  
Year to date cooling degree days 24  
Growing Degree Days 28 (Base 50)    
Moisture  
Dew Point 69 °F    
Average Humidity 77    
Maximum Humidity 88    
Minimum Humidity 57    
Precipitation  
Precipitation 0.00 in 0.04 in 0.55 in (1977)
Month to date precipitation 0.40  
Year to date precipitation 0.40  
Sea Level Pressure  
Sea Level Pressure 29.73 in    
Wind  
Wind Speed 12 mph (SSE)    
Max Wind Speed 29 mph    
Max Gust Speed 40 mph    
Visibility 5 miles    
Events      
T = Trace of Precipitation, MM = Missing Value Source: NWS Daily Summary

Daily Weather History Graph

Daily Weather History Graph

Search for Another Location

Airport:

Trip Planner

Search our weather history database for the weather conditions in past years. The results will help you decide how hot, cold, wet, or windy it might be!

Date:

Astronomy

Jan. 12, 2013 Rise Set
Actual Time 7:22 AM CST 6:00 PM CST
Civil Twilight 6:57 AM CST 6:24 PM CST
Nautical Twilight 6:28 AM CST 6:53 PM CST
Astronomical Twilight 6:00 AM CST 7:21 PM CST
Moon 7:51 AM CST (1/12) 7:18 PM CST (1/12)
Length of Visible Light 11h 27m
Length of Day
10h 37m
New Moon, 1% of the Moon is Illuminated
Jan 12
New Moon
Jan 18
First Quarter
Jan 26
Full
Feb 3
Last Quarter
Feb 10
New

Hourly Weather History & Observations

Time (CST) Temp. Heat Index Dew Point Humidity Pressure Visibility Wind Dir Wind Speed Gust Speed Precip Events Conditions
12:15 AM 71.2 °F - 67.1 °F 87% 29.82 in 5.0 mi SSE 5.8 mph - N/A   Mostly Cloudy
12:35 AM 72.3 °F - 67.6 °F 85% 29.83 in 5.0 mi South 5.8 mph - N/A   Overcast
12:55 AM 72.7 °F - 67.8 °F 85% 29.82 in 7.0 mi South 5.8 mph - N/A   Overcast
1:15 AM 72.7 °F - 68.0 °F 85% 29.81 in 5.0 mi SSE 8.1 mph - N/A   Haze
1:35 AM 73.2 °F - 68.0 °F 84% 29.81 in 7.0 mi South 8.1 mph - N/A   Clear
1:55 AM 73.8 °F - 68.0 °F 82% 29.81 in 7.0 mi South 9.2 mph - N/A   Clear
2:15 AM 73.4 °F - 68.0 °F 83% 29.83 in 5.0 mi South 10.4 mph - N/A   Haze
2:35 AM 72.9 °F - 67.6 °F 84% 29.82 in 5.0 mi South 5.8 mph - N/A   Haze
2:55 AM 72.1 °F - 67.5 °F 85% 29.81 in 5.0 mi SSE 5.8 mph - N/A   Scattered Clouds
3:15 AM 71.6 °F - 67.3 °F 86% 29.80 in 5.0 mi SE 5.8 mph - N/A   Haze
3:35 AM 71.2 °F - 67.5 °F 88% 29.79 in 5.0 mi SSE 4.6 mph - N/A   Mostly Cloudy
3:55 AM 70.9 °F - 67.3 °F 88% 29.77 in 5.0 mi SE 5.8 mph - N/A   Overcast
4:15 AM 72.1 °F - 68.0 °F 87% 29.76 in 7.0 mi SSE 9.2 mph - N/A   Overcast
4:35 AM 72.7 °F - 68.2 °F 86% 29.76 in 7.0 mi SSE 10.4 mph - N/A   Overcast
4:55 AM 72.9 °F - 68.4 °F 86% 29.76 in 5.0 mi SSE 12.7 mph - N/A   Haze
5:15 AM 73.6 °F - 68.9 °F 85% 29.77 in 7.0 mi South 9.2 mph - N/A   Overcast
5:35 AM 73.8 °F - 68.9 °F 85% 29.77 in 7.0 mi South 10.4 mph 16.1 mph N/A   Overcast
5:55 AM 73.9 °F - 69.1 °F 85% 29.76 in 7.0 mi South 12.7 mph - N/A   Overcast
6:15 AM 74.3 °F - 69.1 °F 84% 29.76 in 7.0 mi South 16.1 mph 23.0 mph N/A   Overcast
6:35 AM 74.1 °F - 68.9 °F 84% 29.75 in 7.0 mi SSE 12.7 mph 19.6 mph N/A   Mostly Cloudy
6:55 AM 73.8 °F - 68.9 °F 85% 29.75 in 5.0 mi South 12.7 mph 21.9 mph N/A   Haze
7:15 AM 73.4 °F - 68.5 °F 85% 29.76 in 7.0 mi South 11.5 mph 18.4 mph N/A   Scattered Clouds
7:35 AM 73.4 °F - 68.5 °F 85% 29.76 in 5.0 mi South 15.0 mph 19.6 mph N/A   Scattered Clouds
7:55 AM 73.4 °F - 68.7 °F 85% 29.77 in 5.0 mi South 15.0 mph 23.0 mph N/A   Haze
8:15 AM 73.8 °F - 68.9 °F 85% 29.77 in 5.0 mi South 12.7 mph 19.6 mph N/A   Haze
8:35 AM 74.3 °F - 68.9 °F 83% 29.78 in 5.0 mi South 16.1 mph 20.7 mph N/A   Haze
8:55 AM 74.7 °F - 68.9 °F 82% 29.79 in 5.0 mi South 17.3 mph 21.9 mph N/A   Haze
9:15 AM 75.2 °F - 68.9 °F 81% 29.79 in 5.0 mi South 18.4 mph 23.0 mph N/A   Haze
9:35 AM 76.1 °F - 69.1 °F 79% 29.80 in 5.0 mi South 15.0 mph 20.7 mph N/A   Haze
9:55 AM 76.6 °F - 68.9 °F 77% 29.79 in 5.0 mi South 20.7 mph 29.9 mph N/A   Haze
10:15 AM 77.5 °F - 69.1 °F 75% 29.79 in 5.0 mi South 16.1 mph 32.2 mph N/A   Haze
10:35 AM 79.0 °F - 69.3 °F 72% 29.78 in 5.0 mi South 18.4 mph 28.8 mph N/A   Haze
10:55 AM 80.4 °F 83.4 °F 68.9 °F 68% 29.77 in 7.0 mi South 23.0 mph 31.1 mph N/A   Clear
11:15 AM 81.3 °F 84.5 °F 68.9 °F 66% 29.76 in 5.0 mi South 28.8 mph 36.8 mph N/A   Haze
11:35 AM 82.4 °F 85.6 °F 68.7 °F 63% 29.75 in 5.0 mi South 19.6 mph 40.3 mph N/A   Haze
11:55 AM 82.8 °F 86.0 °F 68.7 °F 62% 29.74 in 7.0 mi South 21.9 mph 33.4 mph N/A   Clear
12:55 PM 84.4 °F 87.6 °F 68.2 °F 58% 29.70 in 5.0 mi South 28.8 mph 34.5 mph N/A   Haze
1:15 PM 85.1 °F 88.5 °F 68.2 °F 57% 29.69 in 7.0 mi South 26.5 mph 34.5 mph N/A   Clear
1:35 PM 84.6 °F 87.9 °F 68.2 °F 58% 29.67 in 5.0 mi South 24.2 mph 34.5 mph N/A   Haze
1:55 PM 85.3 °F 89.1 °F 68.9 °F 58% 29.66 in 5.0 mi South 20.7 mph 32.2 mph N/A   Haze
2:15 PM 84.9 °F 88.8 °F 69.1 °F 59% 29.66 in 5.0 mi South 21.9 mph 28.8 mph N/A   Haze
2:35 PM 85.1 °F 89.4 °F 69.8 °F 60% 29.65 in 5.0 mi SSE 20.7 mph 26.5 mph N/A   Haze
2:55 PM 84.0 °F 88.7 °F 70.5 °F 64% 29.65 in 5.0 mi South 19.6 mph 26.5 mph N/A   Haze
3:15 PM 82.6 °F 86.8 °F 70.7 °F 67% 29.65 in 5.0 mi SSE 20.7 mph 26.5 mph N/A   Haze
3:35 PM 83.3 °F 87.9 °F 70.7 °F 66% 29.66 in 5.0 mi South 18.4 mph 26.5 mph N/A   Haze
3:55 PM 82.4 °F 86.7 °F 70.7 °F 68% 29.66 in 5.0 mi SSE 16.1 mph 20.7 mph N/A   Haze
4:15 PM 81.0 °F 84.6 °F 70.5 °F 70% 29.66 in 5.0 mi South 17.3 mph 23.0 mph N/A   Haze
4:35 PM 80.6 °F 84.1 °F 70.5 °F 71% 29.66 in 4.0 mi SSE 12.7 mph 20.7 mph N/A   Haze
4:55 PM 80.1 °F 83.4 °F 70.7 °F 73% 29.66 in 5.0 mi SSE 12.7 mph 23.0 mph N/A   Haze
5:15 PM 79.3 °F - 70.3 °F 74% 29.67 in 5.0 mi SSE 9.2 mph - N/A   Haze
5:35 PM 79.0 °F - 70.2 °F 74% 29.67 in 5.0 mi SSE 11.5 mph 18.4 mph N/A   Haze
5:55 PM 78.4 °F - 70.3 °F 76% 29.67 in 5.0 mi SSE 15.0 mph - N/A   Haze
6:15 PM 77.9 °F - 70.2 °F 77% 29.67 in 5.0 mi SSE 9.2 mph 19.6 mph N/A   Haze
6:35 PM 77.5 °F - 69.8 °F 77% 29.67 in 7.0 mi South 10.4 mph - N/A   Clear
6:55 PM 77.5 °F - 69.8 °F 77% 29.68 in 7.0 mi South 10.4 mph 17.3 mph N/A   Clear
7:15 PM 77.2 °F - 69.6 °F 77% 29.67 in 5.0 mi SSE 12.7 mph 18.4 mph N/A   Haze
7:35 PM 77.0 °F - 69.8 °F 78% 29.68 in 5.0 mi SSE 15.0 mph - N/A   Haze
7:55 PM 77.0 °F - 69.4 °F 77% 29.68 in 5.0 mi SSE 12.7 mph - N/A   Haze
8:15 PM 77.0 °F - 69.3 °F 77% 29.68 in 5.0 mi SSE 13.8 mph - N/A   Haze
8:35 PM 76.3 °F - 69.3 °F 79% 29.67 in 5.0 mi SSE 16.1 mph - N/A   Haze
8:55 PM 76.1 °F - 69.8 °F 81% 29.67 in 5.0 mi SSE 11.5 mph 18.4 mph N/A   Haze
9:15 PM 76.3 °F - 69.8 °F 80% 29.67 in 5.0 mi SSE 12.7 mph 18.4 mph N/A   Haze
9:35 PM 76.1 °F - 70.0 °F 81% 29.68 in 5.0 mi SSE 12.7 mph 20.7 mph N/A   Haze
9:55 PM 76.1 °F - 70.0 °F 81% 29.68 in 5.0 mi SSE 12.7 mph - N/A   Haze
10:15 PM 76.1 °F - 70.0 °F 81% 29.68 in 5.0 mi SSE 9.2 mph - N/A   Haze
10:35 PM 76.1 °F - 70.0 °F 81% 29.69 in 5.0 mi SSE 10.4 mph - N/A   Haze
10:55 PM 76.1 °F - 70.0 °F 81% 29.69 in 5.0 mi SSE 11.5 mph - N/A   Haze
11:15 PM 76.1 °F - 70.0 °F 81% 29.69 in 5.0 mi SSE 10.4 mph - N/A   Haze
11:35 PM 76.3 °F - 69.8 °F 80% 29.69 in 5.0 mi South 10.4 mph - N/A   Haze
11:55 PM 76.1 °F - 69.8 °F 81% 29.70 in 5.0 mi South 10.4 mph - N/A   Haze